PERSEUS-M2

Last updated on Mon Sep 21 2026 00:03:44 GMT+0000 (Coordinated Universal Time)

1 40037U 14033AD 26263.59993052 .00000774 00000+0 74942-4 0 9993 2 40037 98.0055 216.1425 0011778 349.8228 10.2752 14.95744774665044
UTC large
Height (km)
Speed (km/s)
/
Latitude / Longitude
Inclination (degrees)
Orbital Period (minutes)
Azimuth
Elevation
Range (km)
Doppler Factor

Next 0 passes for location: London (51.5072 / 0.1276)

No passes found over London.
PERSEUS-M2